Time,TemperatureF,DewpointF,PressureIn,WindDirection,WindDirectionDegrees,WindSpeedMPH,WindSpeedGustMPH,Humidity,HourlyPrecipIn,Conditions,Clouds,dailyrainin,SoftwareType,DateUTC
2013-04-04 00:01:00,51.0,42.0,29.96,NW,311,0.0,1.0,72,0.00,,,0.00,,2013-04-04 07:01:00,
2013-04-04 00:12:00,51.0,42.0,29.96,NW,311,0.0,1.0,72,0.00,,,0.00,,2013-04-04 07:12:00,
2013-04-04 00:21:00,50.0,42.0,29.96,NW,311,0.0,1.0,73,0.00,,,0.00,,2013-04-04 07:21:00,
2013-04-04 00:32:00,50.0,42.0,29.96,NW,311,0.0,1.0,73,0.00,,,0.00,,2013-04-04 07:32:00,
2013-04-04 00:42:00,50.0,42.0,29.96,NW,311,0.0,1.0,73,0.00,,,0.00,,2013-04-04 07:42:00,
2013-04-04 00:52:00,50.0,42.0,29.95,NW,311,0.0,0.0,74,0.00,,,0.00,,2013-04-04 07:52:00,
2013-04-04 01:02:00,50.0,42.0,29.95,NW,311,0.0,1.0,75,0.00,,,0.00,,2013-04-04 08:02:00,
2013-04-04 01:12:00,50.0,42.0,29.95,NW,311,0.0,1.0,75,0.00,,,0.00,,2013-04-04 08:12:00,
2013-04-04 01:22:00,50.0,42.0,29.95,NW,311,0.0,1.0,75,0.00,,,0.00,,2013-04-04 08:22:00,
2013-04-04 01:32:00,49.0,42.0,29.95,NW,311,0.0,0.0,76,0.00,,,0.00,,2013-04-04 08:32:00,
2013-04-04 01:42:00,49.0,42.0,29.95,NW,311,0.0,0.0,76,0.00,,,0.00,,2013-04-04 08:42:00,
2013-04-04 01:52:00,49.0,42.0,29.94,NW,311,0.0,0.0,77,0.00,,,0.00,,2013-04-04 08:52:00,
2013-04-04 02:02:00,49.0,42.0,29.93,NW,311,2.0,4.0,78,0.00,,,0.00,,2013-04-04 09:02:00,
2013-04-04 02:12:00,49.0,42.0,29.93,NW,311,2.0,4.0,78,0.00,,,0.00,,2013-04-04 09:12:00,
2013-04-04 02:22:00,49.0,42.0,29.93,NW,311,0.0,2.0,76,0.00,,,0.00,,2013-04-04 09:22:00,
2013-04-04 02:33:00,50.0,42.0,29.92,NW,311,0.0,3.0,74,0.00,,,0.00,,2013-04-04 09:33:00,
2013-04-04 02:43:00,50.0,42.0,29.92,NW,311,0.0,3.0,74,0.00,,,0.00,,2013-04-04 09:43:00,
2013-04-04 02:52:00,50.0,42.0,29.91,NW,311,0.0,2.0,75,0.00,,,0.00,,2013-04-04 09:52:00,
2013-04-04 03:03:00,49.0,42.0,29.91,NW,311,0.0,1.0,77,0.00,,,0.00,,2013-04-04 10:03:00,
2013-04-04 03:12:00,49.0,42.0,29.91,NW,311,0.0,1.0,77,0.00,,,0.00,,2013-04-04 10:12:00,
2013-04-04 03:23:00,49.0,42.0,29.90,NW,311,0.0,1.0,77,0.00,,,0.00,,2013-04-04 10:23:00,
2013-04-04 03:32:00,49.0,42.0,29.90,NW,311,0.0,3.0,78,0.00,,,0.00,,2013-04-04 10:32:00,
2013-04-04 03:42:00,49.0,42.0,29.90,NW,311,0.0,3.0,78,0.00,,,0.00,,2013-04-04 10:42:00,
2013-04-04 03:53:00,49.0,43.0,29.89,NW,311,0.0,2.0,79,0.00,,,0.00,,2013-04-04 10:53:00,
2013-04-04 04:02:00,49.0,42.0,29.88,NW,311,0.0,0.0,78,0.00,,,0.00,,2013-04-04 11:02:00,
2013-04-04 04:12:00,49.0,42.0,29.88,NW,311,0.0,0.0,78,0.00,,,0.00,,2013-04-04 11:12:00,
2013-04-04 04:21:00,49.0,43.0,29.87,NW,311,0.0,0.0,79,0.00,,,0.00,,2013-04-04 11:21:00,
2013-04-04 04:32:00,49.0,43.0,29.87,NW,311,0.0,0.0,79,0.00,,,0.00,,2013-04-04 11:32:00,
2013-04-04 04:42:00,49.0,43.0,29.87,NW,311,0.0,0.0,79,0.00,,,0.00,,2013-04-04 11:42:00,
2013-04-04 04:52:00,49.0,42.0,29.86,NW,311,0.0,2.0,78,0.00,,,0.00,,2013-04-04 11:52:00,
2013-04-04 05:02:00,48.0,41.0,29.86,NW,311,0.0,0.0,78,0.00,,,0.00,,2013-04-04 12:02:00,
2013-04-04 05:12:00,48.0,41.0,29.86,NW,311,0.0,0.0,78,0.00,,,0.00,,2013-04-04 12:12:00,
2013-04-04 05:21:00,48.0,41.0,29.85,NW,311,0.0,2.0,78,0.00,,,0.00,,2013-04-04 12:21:00,
2013-04-04 05:32:00,48.0,42.0,29.85,NW,311,0.0,0.0,79,0.00,,,0.00,,2013-04-04 12:32:00,
2013-04-04 05:42:00,48.0,42.0,29.85,NW,311,0.0,0.0,79,0.00,,,0.00,,2013-04-04 12:42:00,
2013-04-04 05:52:00,48.0,41.0,29.84,NW,311,0.0,2.0,78,0.00,,,0.00,,2013-04-04 12:52:00,
2013-04-04 06:02:00,49.0,42.0,29.84,NW,311,0.0,2.0,77,0.00,,,0.00,,2013-04-04 13:02:00,
2013-04-04 06:12:00,49.0,42.0,29.84,NW,311,0.0,2.0,77,0.00,,,0.00,,2013-04-04 13:12:00,
2013-04-04 06:22:00,48.0,41.0,29.83,NW,311,0.0,0.0,78,0.00,,,0.00,,2013-04-04 13:22:00,
2013-04-04 06:32:00,48.0,42.0,29.83,NW,311,0.0,1.0,79,0.00,,,0.00,,2013-04-04 13:32:00,
2013-04-04 06:42:00,48.0,42.0,29.83,NW,311,0.0,1.0,79,0.00,,,0.00,,2013-04-04 13:42:00,
2013-04-04 06:52:00,48.0,41.0,29.82,NW,311,0.0,3.0,77,0.00,,,0.00,,2013-04-04 13:52:00,
2013-04-04 07:02:00,49.0,41.0,29.81,NW,311,1.0,5.0,75,0.00,,,0.00,,2013-04-04 14:02:00,
2013-04-04 07:12:00,49.0,41.0,29.81,NW,311,1.0,5.0,75,0.00,,,0.00,,2013-04-04 14:12:00,
2013-04-04 07:22:00,49.0,41.0,29.80,NW,311,0.0,5.0,74,0.00,,,0.00,,2013-04-04 14:22:00,
2013-04-04 07:32:00,50.0,42.0,29.79,West,269,1.0,6.0,73,0.00,,,0.00,,2013-04-04 14:32:00,
2013-04-04 07:42:00,50.0,42.0,29.79,West,269,1.0,6.0,73,0.00,,,0.00,,2013-04-04 14:42:00,
2013-04-04 07:52:00,50.0,42.0,29.78,WNW,293,0.0,7.0,73,0.00,,,0.00,,2013-04-04 14:52:00,
2013-04-04 08:02:00,50.0,42.0,29.78,WNW,293,0.0,7.0,73,0.00,,,0.00,,2013-04-04 15:02:00,
2013-04-04 08:12:00,50.0,42.0,29.78,WNW,293,0.0,7.0,73,0.00,,,0.00,,2013-04-04 15:12:00,
2013-04-04 08:22:00,51.0,43.0,29.77,NNW,339,2.0,6.0,74,0.00,,,0.00,,2013-04-04 15:22:00,
2013-04-04 08:33:00,51.0,43.0,29.76,North,355,4.0,8.0,73,0.00,,,0.00,,2013-04-04 15:33:00,
2013-04-04 08:42:00,51.0,43.0,29.76,North,355,4.0,8.0,73,0.00,,,0.00,,2013-04-04 15:42:00,
2013-04-04 08:53:00,51.0,43.0,29.77,NW,313,0.0,7.0,73,0.00,,,0.00,,2013-04-04 15:53:00,
2013-04-04 09:02:00,51.0,42.0,29.77,North,5,3.0,9.0,72,0.00,,,0.00,,2013-04-04 16:02:00,
2013-04-04 09:12:00,51.0,42.0,29.77,North,5,3.0,9.0,72,0.00,,,0.00,,2013-04-04 16:12:00,
2013-04-04 09:23:00,51.0,42.0,29.76,North,5,4.0,8.0,72,0.00,,,0.00,,2013-04-04 16:23:00,
2013-04-04 09:32:00,52.0,43.0,29.76,North,360,4.0,10.0,71,0.00,,,0.00,,2013-04-04 16:32:00,
2013-04-04 09:42:00,52.0,43.0,29.76,North,360,4.0,10.0,71,0.00,,,0.00,,2013-04-04 16:42:00,
2013-04-04 09:52:00,52.0,43.0,29.76,North,355,1.0,8.0,71,0.00,,,0.00,,2013-04-04 16:52:00,
2013-04-04 10:02:00,52.0,43.0,29.75,North,360,3.0,10.0,70,0.00,,,0.00,,2013-04-04 17:02:00,
2013-04-04 10:12:00,52.0,43.0,29.75,North,360,3.0,10.0,70,0.00,,,0.00,,2013-04-04 17:12:00,
2013-04-04 10:22:00,52.0,43.0,29.75,North,355,5.0,12.0,71,0.00,,,0.00,,2013-04-04 17:22:00,
2013-04-04 10:32:00,52.0,43.0,29.73,North,9,5.0,12.0,71,0.00,,,0.00,,2013-04-04 17:32:00,
2013-04-04 10:42:00,52.0,43.0,29.73,North,9,5.0,12.0,71,0.00,,,0.00,,2013-04-04 17:42:00,
2013-04-04 10:52:00,52.0,43.0,29.73,North,355,2.0,14.0,72,0.00,,,0.00,,2013-04-04 17:52:00,
2013-04-04 11:02:00,52.0,44.0,29.72,North,350,6.0,13.0,74,0.00,,,0.00,,2013-04-04 18:02:00,
2013-04-04 11:12:00,52.0,44.0,29.72,North,350,6.0,13.0,74,0.00,,,0.00,,2013-04-04 18:12:00,
2013-04-04 11:22:00,51.0,45.0,29.73,North,5,2.0,11.0,79,0.00,,,0.00,,2013-04-04 18:22:00,
2013-04-04 11:32:00,50.0,44.0,29.73,NW,324,5.0,13.0,81,0.01,,,0.01,,2013-04-04 18:32:00,
2013-04-04 11:42:00,50.0,44.0,29.73,NW,324,5.0,13.0,81,0.01,,,0.01,,2013-04-04 18:42:00,
2013-04-04 11:52:00,50.0,45.0,29.72,North,350,1.0,10.0,83,0.01,,,0.01,,2013-04-04 18:52:00,
2013-04-04 12:02:00,50.0,45.0,29.72,North,355,2.0,7.0,84,0.02,,,0.02,,2013-04-04 19:02:00,
2013-04-04 12:12:00,50.0,45.0,29.72,North,355,2.0,7.0,84,0.02,,,0.02,,2013-04-04 19:12:00,
2013-04-04 12:21:00,50.0,46.0,29.72,North,360,0.0,7.0,85,0.02,,,0.02,,2013-04-04 19:21:00,
2013-04-04 12:32:00,50.0,46.0,29.72,North,360,3.0,8.0,86,0.02,,,0.03,,2013-04-04 19:32:00,
2013-04-04 12:42:00,50.0,46.0,29.72,North,360,3.0,8.0,86,0.02,,,0.03,,2013-04-04 19:42:00,
2013-04-04 12:52:00,50.0,46.0,29.71,North,355,3.0,7.0,87,0.03,,,0.04,,2013-04-04 19:52:00,
2013-04-04 13:02:00,50.0,46.0,29.70,North,349,2.0,9.0,87,0.02,,,0.04,,2013-04-04 20:02:00,
2013-04-04 13:12:00,50.0,46.0,29.70,North,349,2.0,9.0,87,0.02,,,0.04,,2013-04-04 20:12:00,
2013-04-04 13:22:00,50.0,46.0,29.70,North,349,2.0,9.0,87,0.02,,,0.04,,2013-04-04 20:22:00,
2013-04-04 13:32:00,50.0,47.0,29.69,NW,310,4.0,9.0,88,0.02,,,0.05,,2013-04-04 20:32:00,
2013-04-04 13:42:00,50.0,47.0,29.69,NW,310,4.0,9.0,88,0.02,,,0.05,,2013-04-04 20:42:00,
2013-04-04 13:52:00,50.0,47.0,29.68,North,360,3.0,8.0,89,0.02,,,0.06,,2013-04-04 20:52:00,
2013-04-04 14:02:00,50.0,47.0,29.67,North,355,1.0,6.0,89,0.02,,,0.06,,2013-04-04 21:02:00,
2013-04-04 14:12:00,50.0,47.0,29.67,North,355,1.0,6.0,89,0.02,,,0.06,,2013-04-04 21:12:00,
2013-04-04 14:22:00,50.0,47.0,29.67,NNW,336,1.0,7.0,89,0.02,,,0.07,,2013-04-04 21:22:00,
2013-04-04 14:32:00,51.0,48.0,29.67,NNW,327,1.0,5.0,89,0.03,,,0.08,,2013-04-04 21:32:00,
2013-04-04 14:42:00,51.0,48.0,29.67,NNW,327,1.0,5.0,89,0.03,,,0.08,,2013-04-04 21:42:00,
2013-04-04 14:52:00,51.0,48.0,29.65,NNW,332,0.0,6.0,89,0.02,,,0.08,,2013-04-04 21:52:00,
2013-04-04 15:03:00,51.0,48.0,29.65,NW,309,2.0,7.0,89,0.03,,,0.09,,2013-04-04 22:03:00,
2013-04-04 15:12:00,51.0,48.0,29.65,NW,309,2.0,7.0,89,0.03,,,0.09,,2013-04-04 22:12:00,
2013-04-04 15:22:00,50.0,47.0,29.65,North,350,3.0,8.0,89,0.02,,,0.09,,2013-04-04 22:22:00,
2013-04-04 15:32:00,50.0,47.0,29.64,NNW,344,4.0,10.0,89,0.02,,,0.10,,2013-04-04 22:32:00,
2013-04-04 15:42:00,50.0,47.0,29.64,NNW,344,4.0,10.0,89,0.02,,,0.10,,2013-04-04 22:42:00,
2013-04-04 15:52:00,50.0,47.0,29.64,North,360,3.0,7.0,90,0.03,,,0.11,,2013-04-04 22:52:00,
2013-04-04 16:02:00,50.0,47.0,29.64,NW,324,2.0,7.0,90,0.03,,,0.12,,2013-04-04 23:02:00,
2013-04-04 16:12:00,50.0,47.0,29.64,NW,324,2.0,7.0,90,0.03,,,0.12,,2013-04-04 23:12:00,
2013-04-04 16:22:00,50.0,47.0,29.63,NNW,331,0.0,7.0,90,0.03,,,0.12,,2013-04-04 23:22:00,
2013-04-04 16:32:00,50.0,47.0,29.62,NNW,333,3.0,8.0,90,0.03,,,0.13,,2013-04-04 23:32:00,
2013-04-04 16:42:00,50.0,47.0,29.62,NNW,333,3.0,8.0,90,0.03,,,0.13,,2013-04-04 23:42:00,
2013-04-04 16:52:00,50.0,47.0,29.62,NW,325,3.0,7.0,91,0.03,,,0.14,,2013-04-04 23:52:00,
2013-04-04 17:02:00,50.0,47.0,29.62,NW,325,3.0,7.0,91,0.03,,,0.14,,2013-04-05 00:02:00,
2013-04-04 17:12:00,50.0,47.0,29.62,NW,325,3.0,7.0,91,0.03,,,0.14,,2013-04-05 00:12:00,
2013-04-04 17:22:00,50.0,47.0,29.60,NNW,335,3.0,8.0,91,0.03,,,0.15,,2013-04-05 00:22:00,
2013-04-04 17:32:00,50.0,47.0,29.60,North,351,2.0,9.0,91,0.03,,,0.16,,2013-04-05 00:32:00,
2013-04-04 17:42:00,50.0,47.0,29.60,North,351,2.0,9.0,91,0.03,,,0.16,,2013-04-05 00:42:00,
2013-04-04 17:52:00,49.0,46.0,29.59,North,5,5.0,9.0,91,0.02,,,0.16,,2013-04-05 00:52:00,
2013-04-04 18:02:00,49.0,46.0,29.59,North,355,2.0,8.0,91,0.01,,,0.16,,2013-04-05 01:02:00,
2013-04-04 18:12:00,49.0,46.0,29.59,North,355,2.0,8.0,91,0.01,,,0.16,,2013-04-05 01:12:00,
2013-04-04 18:22:00,49.0,47.0,29.58,NNW,343,4.0,8.0,92,0.01,,,0.16,,2013-04-05 01:22:00,
2013-04-04 18:32:00,49.0,47.0,29.58,NNW,334,3.0,8.0,92,0.00,,,0.16,,2013-04-05 01:32:00,
2013-04-04 18:42:00,49.0,47.0,29.58,NNW,334,3.0,8.0,92,0.00,,,0.16,,2013-04-05 01:42:00,
2013-04-04 18:52:00,49.0,47.0,29.57,NW,322,1.0,6.0,92,0.00,,,0.16,,2013-04-05 01:52:00,
2013-04-04 19:02:00,49.0,47.0,29.57,West,275,1.0,6.0,92,0.00,,,0.16,,2013-04-05 02:02:00,
2013-04-04 19:12:00,49.0,47.0,29.57,West,275,1.0,6.0,92,0.00,,,0.16,,2013-04-05 02:12:00,
2013-04-04 19:22:00,49.0,47.0,29.57,West,259,2.0,8.0,92,0.00,,,0.16,,2013-04-05 02:22:00,
2013-04-04 19:32:00,49.0,47.0,29.57,West,262,1.0,5.0,92,0.01,,,0.17,,2013-04-05 02:32:00,
2013-04-04 19:42:00,49.0,47.0,29.57,West,262,1.0,5.0,92,0.01,,,0.17,,2013-04-05 02:42:00,
2013-04-04 19:52:00,49.0,47.0,29.57,SW,229,2.0,9.0,92,0.01,,,0.17,,2013-04-05 02:52:00,
2013-04-04 20:02:00,49.0,47.0,29.56,WSW,250,0.0,7.0,92,0.01,,,0.17,,2013-04-05 03:02:00,
2013-04-04 20:12:00,49.0,47.0,29.56,WSW,250,0.0,7.0,92,0.01,,,0.17,,2013-04-05 03:12:00,
2013-04-04 20:22:00,49.0,47.0,29.56,WSW,250,0.0,7.0,92,0.01,,,0.17,,2013-04-05 03:22:00,
2013-04-04 20:32:00,50.0,48.0,29.56,WSW,252,0.0,4.0,92,0.00,,,0.17,,2013-04-05 03:32:00,
2013-04-04 20:43:00,50.0,48.0,29.56,WSW,252,0.0,4.0,92,0.00,,,0.17,,2013-04-05 03:43:00,
2013-04-04 20:53:00,50.0,48.0,29.56,WSW,252,0.0,0.0,92,0.00,,,0.17,,2013-04-05 03:53:00,
2013-04-04 21:02:00,49.0,47.0,29.57,WSW,252,0.0,2.0,92,0.00,,,0.17,,2013-04-05 04:02:00,
2013-04-04 21:12:00,49.0,47.0,29.57,WSW,252,0.0,2.0,92,0.00,,,0.17,,2013-04-05 04:12:00,
2013-04-04 21:22:00,49.0,47.0,29.57,WSW,252,0.0,2.0,92,0.00,,,0.17,,2013-04-05 04:22:00,
2013-04-04 21:32:00,49.0,47.0,29.58,WSW,252,0.0,0.0,92,0.00,,,0.17,,2013-04-05 04:32:00,
2013-04-04 21:42:00,49.0,47.0,29.58,WSW,252,0.0,0.0,92,0.00,,,0.17,,2013-04-05 04:42:00,
2013-04-04 21:52:00,49.0,47.0,29.59,WSW,252,0.0,1.0,92,0.00,,,0.17,,2013-04-05 04:52:00,
2013-04-04 22:02:00,49.0,47.0,29.59,WSW,252,0.0,1.0,93,0.00,,,0.17,,2013-04-05 05:02:00,
2013-04-04 22:12:00,49.0,47.0,29.59,WSW,252,0.0,1.0,93,0.00,,,0.17,,2013-04-05 05:12:00,
2013-04-04 22:21:00,49.0,47.0,29.60,WSW,252,0.0,0.0,93,0.00,,,0.17,,2013-04-05 05:21:00,
2013-04-04 22:32:00,49.0,47.0,29.61,WSW,252,0.0,0.0,93,0.00,,,0.17,,2013-04-05 05:32:00,
2013-04-04 22:42:00,49.0,47.0,29.61,WSW,252,0.0,0.0,93,0.00,,,0.17,,2013-04-05 05:42:00,
2013-04-04 22:51:00,49.0,47.0,29.61,WSW,252,0.0,1.0,93,0.00,,,0.17,,2013-04-05 05:51:00,
2013-04-04 23:02:00,49.0,47.0,29.61,WSW,252,0.0,0.0,93,0.00,,,0.17,,2013-04-05 06:02:00,
2013-04-04 23:12:00,49.0,47.0,29.61,WSW,252,0.0,0.0,93,0.00,,,0.17,,2013-04-05 06:12:00,
2013-04-04 23:22:00,49.0,47.0,29.61,WSW,252,0.0,0.0,93,0.00,,,0.17,,2013-04-05 06:22:00,
2013-04-04 23:32:00,49.0,47.0,29.61,WSW,252,0.0,1.0,93,0.01,,,0.18,,2013-04-05 06:32:00,
2013-04-04 23:42:00,49.0,47.0,29.61,WSW,252,0.0,1.0,93,0.01,,,0.18,,2013-04-05 06:42:00,
2013-04-04 23:52:00,49.0,47.0,29.61,WSW,252,0.0,0.0,93,0.01,,,0.18,,2013-04-05 06:52:00,